STARLINK-6310, 56533

Orbit data source: Space-Track

STARLINK-6310, 56533 is a payload satellite owned by SpaceX/Seattle (US) in LEO that was launched on Sun, 14 May 2023 UTC via an FALCON 9 launch vehicle from the Air Force Eastern Test Range (AFETR). Payload-class satellites include a variety of spacecraft equipped with specific instruments for various scientific and technological missions. These include communications satellites like Starlink; space stations such as the ISS; scientific satellites like the Hubble; Earth observation satellites from companies like Planet Labs, Umbra, and HawkEye 360; GPS; miniature CubeSats for education and research; and military/defense satellites.

Loading next visibility...
Identifier
56533, 2023-065AG
Orbit
LEO
Country
Flag of USUS
Related business
Manufacturer
SpaceX/Seattle
Mission
Operational Commercial Communications
Bus & Motor
STARLINK, Unknown motor
Mass
305 kg wet, ~290 kg dry
Launch date (UTC)
2023-05-14 (3 years ago)
Launch vehicle
FALCON 9
Launch site
Air Force Eastern Test Range (AFETR)
Object type
Payload
Rocket body
Debris
Shape & HBR
Box + 1 Pan, 10.1 m
Radar Cross Section
11.087 m², Large (>1 m²)

Expand to show TLE details & history
Last TLE update: 2 days ago

TLE from 2 days ago
0 STARLINK-6310
1 56533U 23065AG  26171.45959235  .00000193  00000-0  16560-4 0  9992
2 56533  43.0016 337.6597 0001620 265.4366  94.6300 15.27577480172489
Epoch: 2026-06-20T11:01Z
TLE epoch observation values (Epoch: 2026-06-20T11:01:48.779Z)
Latitude
-0.00004°
Longitude
-96.4675°
Altitude
482.922 km
Speed
7.626 km/s
True Right ascension
22h 30m 38s
True Declination
0° 00' 00"
Sunlit
Object was in daylight at epoch
Visualization orbit readout
Latitude
Unknown
Longitude
Unknown
Altitude
Unknown
Speed
Unknown
Apparent Right ascension
Unknown
Apparent Declination
Unknown
Sunlit
N/A
Visualization observer readout
Local Sidereal Time
21:24:37
Azimuth
Unknown
Elevation
Unknown
Doppler factor
Unknown
Orbital elements
Apogee altitude
486.113 km
Perigee altitude
483.89 km
Semi-major axis
6,863.139 km
Eccentricity
0.00016
Inclination
43.0016°
RAAN
337.6597°
Arg. of periapsis
265.4366°
True anomaly
94.6485°
Mean anomaly
94.63°
Eccentric anomaly
94.63925°
Mean motion
3.81732 °/min
Orbital period
94.31 mins
BSTAR
0.00001656
Loading maneuver chart data...
Computing Atmospheric mass density...
Loading historical data...
Loading historical data...
Loading historical data...
Loading historical data...
Loading historical data...
Loading historical data...
Loading historical data...

Documentation

Showing up to 5 results
|